Probability
0 0 0 0 0 0 0 0 0 0 0 0 0 0 0 0 0 0 0 0 0 0 0 0 0 0 0 0 0 0 0 0 0 0 0 0 0 0 0 0 0 0 0 0
0 0 0 0 0 0 0 0 0 0 0 0 0 0 0 0 0 0 0 0 0 0 0 0 0 0 0 0 0 0 0 0 0 0 0 0 0 0 0 0 0 0 0 0
0 0 0 0 0 0 0 0 0 0 0 0 0 0 0 0 0 0 0 0 0 0 0 0 0 0 0 0 0 0 0 0 0 0 0 0 0 0 0 0 0 0 0 0
0 0 0 0 0 0 0 0 0 0 0 0 0 0 0 0 0 0 0 0 0 0 0 0 0 0 0 0 0 0 0 0 0 0 0 0 0 0 0 0 0 0 0 0
0 0 0 0 0 0 0 0 0 0 0 0 0 0 0 0 0 0 0 0 0 0 0 0 0 0 0 0 0 0 0 0 0 0 0 0 0 0 0 0 0 0 0 0
0 0 0 0 0 0 0 0 0 0 0 0 0 0 0 0 0 0 0 0 0 0 0 0 0 0 0 0 0 0 0 0 0 0 0 0 0 0 0 0 0 0 0 0
0 0 0 0 0 0 0 0 0 0 0 0 0 0 0 0 0 0 0 0 0 0 0 0 0 0 0 0 0 0 0 0 0 0 0 0 0 0 0 0 0 0 0 0
0 0 0 0 0 0 0 0 0 0 0 0 0 0 0 0 0 0 0 0 0 0 0 0 0 0 0 0 0 0 0 0 0 0 0 0 0 0 0 0 0 0 0 0
0 0 0 0 0 0 0 0 0 0 0 0 0 0 0 0 0 0 0 0 0 0 0 0 0 0 0 0 0 0 0 0 0 0 0 0 0 0 0 0 0 0 0 0
0 0 0 0 0 0 0 0 0 0 0 0 0 0 0 0 0 0 0 0 0 0 0 0 0 0 0 0 0 0 0 0 0 0 0 0 0 0 0 0 0 0 0 0
0 0 0 0 0 0 0 0 0 0 0 0 0 0 0 0 0 0 0 0 0 0 0 0 0 0 0 0 0 0 0 0 0 0 0 0 0 0 0 0 0 0 0 0
0 0 0 0 0 0 0 0 0 0 0 0 0 0 0 0 0 0 0 0 0 0 0 0 0 0 0 0 0 0 0 0 0 0 0 0 0 0 0 0 0 0 0 0
0 0 0 0 0 0 0 0 0 0 0 0 0 0 0 0 0 0 0 0 0 0 0 0 0 0 0 0 0 0 0 0 0 0 0 0 0 0 0 0 0 0 0 0
0 0 0 0 0 0 0 0 0 0 0 0 0 0 0 0 0 0 0 0 0 0 0 0 0 0 0 0 0 0 0 0 0 0 0 0 0 0 0 0 0 0 0 0
0 0 0 0 0 0 0 0 0 0 0 0 0 0 0 0 0 0 0 0 0 0 0 0 0 0 0 0 0 0 0 0 0 0 0 0 0 0 0 0 0 0 0 0
0 0 0 0 0 0 0 0 0 0 0 0 0 0 0 0 0 0 0 0 0 0 0 0 0 0 0 0 0 0 0 0 0 0 0 0 0 0 0 0 0 0 0 0
0 0 0 0 0 0 0 0 0 0 0 0 0 0 0 0 0 0 0 0 0 0 0 0 0 0 0 0 0 0 0 0 0 0 0 0 0 0 0 0 0 0 0 0
0 0 0 0 0 0 0 0 0 0 0 0 0 0 0 0 0 0 0 0 0 0 0 0 0 0 0 0 0 0 0 0 0 0 0 0 0 0 0 0 0 0 0 0
0 0 0 0 0 0 0 0 0 0 0 0 0 0 0 0 0 0 0 0 0 0 0 0 0 0 0 0 0 0 0 0 0 0 0 0 0 0 0 0 0 0 0 0
0 0 0 0 0 0 0 0 0 0 0 0 0 0 0 0 0 0 0 0 0 0 0 0 0 0 0 0 0 0 0 0 0 0 0 0 0 0 0 0 0 0 0 0
0 0 0 0 0 0 0 0 0 0 0 0 0 0 0 0 0 0 0 0 0 0 0 0 0 0 0 0 0 0 0 0 0 0 0 0 0 0 0 0 0 0 0 0
0 0 0 0 0 0 0 0 0 0 0 0 0 0 0 0 0 0 0 0 0 0 0 0 0 0 0 0 0 0 0 0 0 0 0 0 0 0 0 0 0 0 0 0
0 0 0 0 0 0 0 0 0 0 0 0 0 0 0 0 0 0 0 0 0 0 0 0 0 0 0 0 0 0 0 0 0 0 0 0 0 0 0 0 0 0 0 0
0 0 0 0 0 0 0 0 0 0 0 0 0 0 0 0 0 0 0 0 0 0 0 0 0 0 0 0 0 0 0 0 0 0 0 0 0 0 0 0 0 0 0 0
0 0 0 0 0 0 0 0 0 0 0 0 0 0 0 0 0 0 0 0 0 0 0 0 0 0 0 0 0 0 0 0 0 0 0 0 0 0 0 0 0 0 0 0
0 0 0 0 0 0 0 0 0 0 0 0 0 0 0 0 0 0 0 0 0 0 0 0 0 0 0 0 0 0 0 0 0 0 0 0 0 0 0 0 0 0 0 0
0 0 0 0 0 0 0 0 0 0 0 0 0 0 0 0 0 0 0 0 0 0 0 0 0 0 0 0 0 0 0 0 0 0 0 0 0 0 0 0 0 0 0 0
Wind_Speed
7 10 18 18 21 23 24 22 19 23 27 27 20 15 12 8 7 7 8 7 7 7 7 7 8 8 8 8 7 7 8 9 9 8 8 8 9 9 9 10 11 11 11 10
5 10 16 14 22 25 27 28 27 25 28 25 17 13 15 15 12 12 12 10 8 8 8 9 9 9 9 8 8 8 8 8 6 6 7 8 8 8 9 9 9 10 11 12
8 8 7 12 24 27 26 28 27 29 32 18 13 15 17 16 14 14 14 12 10 10 10 10 10 10 10 9 8 8 7 6 6 6 7 7 8 9 9 10 10 10 10 11
8 9 14 15 15 20 25 27 27 24 21 18 17 14 13 15 16 16 14 13 12 10 9 8 8 9 8 8 8 8 7 7 7 7 7 7 8 9 8 8 10 10 10 11
8 12 13 10 11 20 21 24 25 27 26 20 8 6 14 14 14 16 15 12 10 8 7 6 8 9 9 8 8 9 9 9 8 8 8 9 9 9 8 8 8 8 9 10
9 12 17 12 10 11 11 18 16 20 23 18 11 13 17 9 9 11 11 8 6 4 4 5 6 8 9 9 9 10 9 8 8 8 9 10 9 8 7 7 8 8 8 8
11 11 11 5 8 17 16 13 7 14 18 16 17 18 10 1 1 2 3 3 2 3 4 4 6 8 9 9 9 6 5 6 7 7 7 8 8 7 8 8 9 8 9 7
11 12 12 8 13 16 9 3 5 7 9 11 13 10 5 2 1 2 2 2 1 1 2 2 5 7 7 7 4 5 6 7 7 6 6 6 8 8 9 10 11 10 9 8
12 11 3 11 10 6 3 5 4 4 4 6 6 4 3 1 1 2 3 3 2 2 3 3 3 4 4 3 5 6 6 6 6 6 6 7 9 10 9 9 8 8 9 9
5 5 4 5 2 1 2 3 2 2 3 4 4 3 3 3 3 3 4 4 3 3 3 3 2 2 2 4 5 6 6 6 6 7 7 7 6 7 8 9 9 9 9 9
5 3 3 2 4 3 4 5 5 5 4 4 6 5 4 4 4 4 4 4 4 3 3 3 3 3 3 3 5 5 5 5 6 6 6 6 6 6 7 6 8 10 9 10
7 7 7 6 3 4 6 5 5 6 6 6 6 6 6 6 5 5 5 5 5 5 5 4 3 4 3 2 3 5 5 5 5 5 5 5 5 4 5 5 6 7 8 9
1 2 4 6 6 5 6 7 8 8 8 8 7 7 7 6 6 6 6 6 6 5 5 4 4 4 3 2 2 3 4 4 4 4 5 5 6 6 5 4 6 8 11 12
4 4 6 5 6 7 9 10 11 11 10 9 8 7 7 7 7 8 7 6 5 6 6 5 5 5 4 2 1 2 2 4 4 4 5 5 6 6 5 6 6 5 8 12
8 6 7 9 10 9 8 9 11 10 9 9 8 8 8 8 8 7 6 5 5 7 7 6 5 5 5 3 1 0 1 2 3 3 4 4 4 5 5 6 5 4 4 6
5 9 10 11 11 9 9 9 10 8 7 8 8 8 7 7 7 7 7 7 7 8 7 7 6 6 5 4 2 1 0 1 2 2 3 4 4 5 5 5 6 6 6 6
4 6 6 7 8 8 8 8 8 7 7 7 7 6 5 6 7 8 8 7 7 7 8 8 7 6 6 5 3 1 1 0 1 2 3 3 4 4 5 5 6 6 6 7
9 8 7 6 6 7 8 8 8 7 6 5 5 6 7 8 7 6 6 5 5 7 9 9 8 6 6 5 4 2 1 1 1 2 2 2 3 4 4 5 6 6 5 5
10 10 10 10 9 7 7 7 7 6 6 5 5 6 6 6 6 5 5 6 7 7 9 10 11 7 6 6 5 3 2 2 1 1 2 2 3 3 4 5 5 5 5 5
10 10 10 10 10 8 7 6 6 6 6 5 5 6 6 6 6 5 5 6 6 5 7 8 8 6 6 6 6 3 3 2 2 2 2 3 3 4 4 5 5 5 5 6
9 9 8 8 8 8 7 6 6 6 6 6 6 5 5 5 5 4 3 3 5 7 7 7 6 5 5 5 5 3 3 3 3 3 3 3 4 4 4 5 5 5 5 6
6 6 7 6 6 6 6 6 5 5 5 5 6 5 4 5 5 4 3 2 5 8 6 5 5 6 7 6 4 3 3 3 3 3 3 3 4 4 5 5 5 5 6 6
5 5 5 5 4 3 4 5 5 5 5 5 5 5 4 4 4 3 2 4 5 8 6 5 7 8 8 4 3 3 3 3 3 3 4 4 4 5 5 6 5 6 6 6
4 4 4 4 3 3 4 5 4 3 3 3 3 3 3 3 2 1 3 5 7 7 5 6 8 8 7 3 3 3 3 3 4 4 4 4 5 5 5 6 6 6 6 7
3 3 3 3 3 3 3 4 3 3 3 3 3 3 2 2 3 4 4 5 7 6 5 6 8 8 5 3 3 4 4 4 4 5 5 5 5 5 5 6 6 6 6 6
2 2 2 2 2 2 2 2 2 3 3 3 3 3 3 3 4 4 4 5 6 6 5 4 5 5 4 4 4 4 4 5 5 5 5 5 6 6 6 6 8 7 6 6
2 2 2 2 1 2 2 2 3 3 3 3 4 4 4 4 4 4 5 5 5 5 4 4 4 4 4 4 5 5 5 5 5 5 5 6 6 6 6 7 7 6 6 7
Wind_Direction
192 164 173 192 197 199 208 217 225 237 244 249 247 254 264 267 269 275 279 272 259 252 243 233 225 220 215 211 202 196 199 205 205 195 189 180 175 172 167 168 170 165 160 158
159 174 180 194 202 203 211 219 229 243 250 252 256 251 256 262 265 271 276 274 264 250 240 233 224 216 209 206 197 193 198 201 191 180 174 171 167 160 157 158 156 156 158 158
176 162 163 214 205 204 213 220 224 235 246 249 244 241 247 254 257 260 266 268 262 251 241 230 220 210 207 198 187 191 193 183 174 172 172 167 159 157 162 162 158 160 159 160
148 155 212 228 204 204 214 222 222 231 244 244 246 248 246 249 253 258 259 259 258 252 246 231 209 202 196 183 183 187 188 183 178 177 171 160 160 164 164 160 162 159 159 161
170 199 234 238 198 199 208 229 226 233 242 247 245 265 261 248 243 251 256 257 259 251 240 214 196 186 178 180 183 189 192 191 184 177 169 166 170 167 161 158 158 156 158 158
176 201 224 231 185 176 191 243 226 225 238 240 220 246 257 249 230 244 253 255 252 236 214 202 188 171 174 184 191 200 196 188 179 176 174 174 171 161 156 155 154 149 151 158
191 214 240 216 150 151 187 231 199 210 227 225 221 233 255 277 213 260 270 269 243 207 202 198 168 166 181 190 202 193 169 165 170 176 175 169 158 154 152 148 146 147 147 150
194 214 226 161 157 181 205 162 175 195 213 215 224 236 248 276 324 355 353 9 27 167 151 133 150 169 186 198 177 146 152 161 168 169 165 158 155 154 155 154 153 153 151 151
199 214 136 165 185 197 156 172 182 186 195 197 203 215 216 224 34 33 24 25 33 78 95 91 129 165 181 165 142 145 152 160 161 161 161 162 163 161 160 163 163 164 164 165
187 212 177 178 178 151 151 154 133 130 134 148 156 147 132 104 67 52 40 34 39 80 91 78 80 90 104 124 140 148 158 160 160 165 167 167 169 171 173 176 174 173 175 174
190 174 140 207 206 177 134 114 105 88 79 103 121 113 105 91 66 54 47 36 42 60 74 72 73 74 84 122 141 149 154 158 164 171 171 173 177 186 189 193 193 184 185 179
196 182 179 185 184 153 135 125 120 111 85 64 77 95 93 82 67 61 54 46 49 50 56 56 64 66 66 104 141 150 157 166 171 172 172 174 171 171 196 196 202 203 194 186
10 98 103 102 89 96 107 95 87 84 88 83 67 73 85 80 67 63 57 50 47 46 48 52 57 54 38 48 132 159 170 171 173 176 179 182 182 179 174 175 194 201 197 194
43 95 101 90 87 83 92 92 86 76 67 67 69 70 77 79 69 60 49 40 46 55 51 48 52 40 15 6 76 154 173 175 181 186 189 192 195 196 189 182 181 192 201 200
21 53 98 99 87 78 82 90 85 74 65 58 55 63 69 73 67 54 38 31 53 57 44 38 39 22 3 360 9 118 185 184 191 194 196 198 200 201 202 201 198 189 177 190
21 73 82 85 81 73 71 74 79 70 60 57 52 49 55 71 71 58 43 34 48 45 28 23 22 5 356 356 356 359 292 197 194 197 198 200 201 204 206 206 204 201 199 191
62 69 65 78 74 68 59 59 69 68 59 52 42 37 48 64 64 51 40 39 55 53 33 19 4 358 359 360 354 345 333 226 194 205 210 213 215 217 218 217 217 217 216 205
41 52 53 71 81 79 67 56 54 51 43 30 32 48 51 53 51 35 22 28 53 54 32 9 357 4 4 2 356 346 336 309 263 245 239 233 234 235 236 236 237 236 234 223
39 46 49 50 51 63 62 52 43 41 33 30 48 55 53 46 38 29 29 39 35 28 7 353 356 6 4 358 358 352 343 328 304 284 270 259 249 246 245 246 248 248 241 229
39 41 47 49 45 47 48 36 35 39 28 26 46 56 50 33 20 25 52 60 39 358 333 340 347 358 359 358 358 352 346 331 312 298 285 273 266 262 257 255 254 253 248 242
33 36 41 45 48 43 36 27 29 32 23 25 38 40 32 19 11 12 36 51 15 350 342 344 350 351 352 350 351 352 346 334 319 306 294 285 279 275 270 266 262 258 256 253
22 28 32 34 42 41 28 24 27 28 28 29 28 23 22 20 16 26 52 24 341 337 339 343 344 344 345 344 345 344 336 324 311 301 292 286 281 278 274 271 267 265 262 260
16 18 22 22 22 23 23 25 20 20 21 20 15 10 7 356 349 349 352 351 336 335 338 335 334 341 349 346 339 331 324 313 304 297 291 287 282 280 279 277 274 272 269 266
7 8 7 3 9 27 23 9 0 2 358 356 0 349 340 336 337 334 313 315 323 326 326 324 333 344 344 336 329 323 315 308 301 296 292 287 283 281 279 279 277 277 275 273
349 352 0 5 14 9 352 338 339 350 352 346 343 339 328 313 300 307 310 312 318 322 318 325 335 339 335 325 321 316 309 302 298 295 288 285 283 281 279 278 276 276 275 273
330 328 326 320 312 318 323 327 327 330 333 328 325 320 320 311 300 297 299 303 306 307 306 308 313 315 313 311 307 303 299 296 293 287 284 283 281 279 277 277 277 274 273 272
305 306 308 309 307 310 309 306 303 307 309 305 302 303 309 307 303 301 300 298 299 298 297 297 298 298 296 295 294 291 288 285 282 281 280 278 276 274 275 274 274 274 273 270